Regional Weather Roundup
Issued by NWS Boston, MA

Home | Current Version | Previous Version | Text Only | Print | Product List | Glossary On
Versions: 1 2 3 4 5 6 7 8 9 10 11 12 13 14 15 16 17 18 19 20 21 22 23 24 25 26 27 28 29 30 31 32 33 34 35 36 37 38 39 40 41 42 43 44 45 46 47 48 49 50
027
ASUS41 KBOX 282010
RWRBOX

REGIONAL WEATHER ROUNDUP
NATIONAL WEATHER SERVICE TAUNTON MA
400 PM EDT TUE MAR 28 2017

NOTE:  "FAIR" INDICATES FEW OR NO CLOUDS BELOW 12,000 FEET WITH NO
SIGNIFICANT WEATHER AND/OR OBSTRUCTIONS TO VISIBILITY.

MAZALL-282100-
EASTERN MASSACHUSETTS

CITY           SKY/WX    TMP DP  RH WIND       PRES   REMARKS
BOSTON         LGT RAIN  39  38  96 E8        30.00S FOG
BEVERLY        LGT RAIN  40  38  93 CALM      30.00R
LAWRENCE       LGT RAIN  37  37 100 E5        30.01S FOG
BEDFORD        LGT RAIN  42  36  79 SE6       29.98S
BLUE HILL        N/A     37  36  96 NE8       29.95F WCI  31
NORWOOD        LGT RAIN  41  39  93 NE6       29.98F
MARSHFIELD     CLOUDY    41  39  93 VRB5      30.00S
PLYMOUTH       LGT RAIN  40  37  89 NE5       29.99F
TAUNTON        LGT RAIN  42  39  89 E6        29.97F
NEW BEDFORD    LGT RAIN  41  40  96 SE10      29.96F
$$

MAZALL-282100-
CAPE COD AND THE ISLANDS

CITY           SKY/WX    TMP DP  RH WIND       PRES   REMARKS
FALMOUTH       CLOUDY    41  39  93 MISG      30.00F
HYANNIS        CLOUDY    42  40  92 CALM      29.98R
CHATHAM        CLOUDY    42  40  92 E5        30.00S
PROVINCETOWN   LGT RAIN  41  38  89 E3        30.01R
NANTUCKET      CLOUDY    43  37  79 E6        29.98S
MARTHAS VNYRD  LGT RAIN  43  38  82 E9        29.97F
$$

MAZALL-282100-
CENTRAL AND WESTERN MASSACHUSETTS

CITY           SKY/WX    TMP DP  RH WIND       PRES   REMARKS
WORCESTER      LGT RAIN  37  36  96 NE5       29.94F VSB<1/4
FITCHBURG      RAIN      40  38  93 CALM      29.98F FOG
ORANGE         LGT RAIN  41  41 100 SE3       29.95F FOG
SPRINGFIELD    LGT RAIN  43  41  93 NE3       29.93F FOG
WESTFIELD      LGT RAIN  42  42 100 N6        29.94F FOG
NORTH ADAMS    LGT RAIN  48  46  93 SE6       29.90S FOG
PITTSFIELD     LGT RAIN  46  42  86 SW6       29.89F
$$

RIZALL-282100-
RHODE ISLAND

CITY           SKY/WX    TMP DP  RH WIND       PRES   REMARKS
PROVIDENCE     LGT RAIN  44  40  85 E5        29.96F FOG
NEWPORT        LGT RAIN  42  41  96 E5        29.95F
BLOCK ISLAND   LGT RAIN  39  39 100 E12       29.93F WCI  32
SMITHFIELD     LGT RAIN  41  40  96 NE5       29.96F FOG
WESTERLY       LGT RAIN  43  42  97 VRB3      29.94F
$$

CTZALL-282100-
CONNECTICUT

CITY           SKY/WX    TMP DP  RH WIND       PRES   REMARKS
BRADLEY INTL   LGT RAIN  43  42  97 N5        29.94F FOG
HARTFORD       LGT RAIN  45  43  93 CALM      29.94S FOG
BRIDGEPORT     LGT RAIN  42  39  89 NE13      29.92F
DANBURY        LGT RAIN  43  42  97 E9        29.90F FOG
GROTON         LGT RAIN  44  41  89 E8        29.92F
NEW HAVEN      LGT RAIN  43  42  97 NE3       29.92F
CHESTER        NOT AVBL
MERIDEN        LGT RAIN  45  42  89 N3        29.93F
WILLIMANTIC    LGT RAIN  46  43  89 E6        29.94F FOG
OXFORD         CLOUDY    43  37  81 CALM      29.93F FOG
$$

MEZ002-015-021-024-NHZ003-005-008-011-012-014-VTZ005-008-282100-
NORTHERN NEW ENGLAND

CITY           SKY/WX    TMP DP  RH WIND       PRES   REMARKS
PORTLAND ME    FOG       35  34  96 E3        30.01S VSB 3/4
BANGOR ME      CLOUDY    34  33  96 S5        30.00F WCI  30
CONCORD NH     LGT RAIN  40  35  83 S5        29.97F
MANCHESTER NH  LGT RAIN  39  34  82 E5        29.98S
NASHUA NH      LGT RAIN  40  38  93 E3        29.99F FOG
PORTSMOUTH NH  CLOUDY    38  35  88 SE5       29.99S
JAFFREY NH     LGT RAIN  39  37  92 CALM      29.95S FOG
KEENE NH       LGT RAIN  42  41  96 CALM      29.95F FOG
BURLINGTON VT  LGT RAIN  40  37  89 N12       29.93R
MT. WASHINGTON FOG       36  36 100 W33         N/A  VSB 0   WCI  22
$$

NYZ052-076-282100-
EASTERN NEW YORK

CITY           SKY/WX    TMP DP  RH WIND       PRES   REMARKS
ALBANY         LGT RAIN  48  44  86 S8        29.91S FOG
NEW YORK CITY  CLOUDY    42  39  89 NE18      29.88F
$$

ANZALL-282100-
MARINE OBSERVATIONS

STATION/POSITION TIME  TEMP    WIND        PRES    VSBY  WAVE
                       AIR SEA DIR/SP/G                  HT/PER
                 (UTC) (F)     (DEG/KT/KT) (MB)    (MI)  (FT/S)
BOSTON BUOY      NOT AVBL
BUZZARDS BAY     1900   39      30/  5/  5 1016.5R
NANTUCKET SOUND  NOT AVBL
MASS BAY-STELLWA NOT AVBL
ISLE OF SHOALS   1900   36      40/  8/  9 1015.8F
S OF BLOCK IS    NOT AVBL
$$

......................KEY.........................
  SKY/WX - SKY CONDITION/PRESENT WEATHER
  TMP    - TEMPERATURE IN FAHRENHEIT
  DWPT   - DEWPOINT IN FAHRENHEIT
  RH     - RELATIVE HUMIDITY IN PERCENT
  WIND   - DIRECTION AND SPEED IN MPH
  PRES   - MEAN SEA LEVEL PRESSURE IN INCHES OF HG
  WCI    - WIND CHILL INDEX
  VSB    - VISIBILITY IN MILES
  HX     - HEAT INDEX
  TC     - TEMPERATURE IN CELSIUS
  VRB    - VARIABLE WIND DIRECTION
  N/A    - NOT AVAILABLE




USA.gov is the U.S. government's official web portal to all federal, state and local government web resources and services.